Location: ??
(35.5052°N, 139.7262°E)
Time: 01:57:26
(UTC+00:00)

USA 229 DEB - Pass Details

Date: 20 June 2021
Orbit: 955 x 1257 km, 63.4° (Epoch: 23 July)

Event Time Altitude Azimuth Distance (km) Brightness Sun altitude
Exits shadow 14:41:38 80° 37° (NE) 1,014 3.5 -31.1°
Drops below altitude 10° 14:47:54 10° 32° (NNE) 2,848 6.6 -31.0°
Sets 14:50:36 0° 32° (NNE) 3,848 7.5 -31.0°
